Flag for Iran Weather past 2 weeks in Mashhad, Iran

70 °F


Feels Like: 70 °F
Forecast: 59 / 76 °F
Wind: 5 mph from Southwest

Location: Mashhad Airport

Current Time: Oct 9, 2015 at 7:42:46 AM

Latest Report: Oct 9, 2015 at 7:00 AM

Visibility: 10 mi

Pressure: 30.07 "Hg (26.83 "Hg at 981m altitude)

Humidity: 31%

Dew point: 37 °F

Location of MashhadLocation

Historic Weather in Mashhad — Graph


Mashhad temperature yesterday

Maximum temperature yesterday: 97 °F (at 2:00 PM)
Minimum temperature yesterday: 61 °F (at 4:30 AM)
Average temperature yesterday: 81 °F

Past Weeks' High & Low Weather Summary

High97 °F (Oct 8, 2:00 PM)64% (Oct 4, 9:30 PM)30.30 "Hg (Oct 4, 9:30 PM)
Low48 °F (Sep 26, 5:00 AM)6% (Oct 8, 12:00 PM)29.86 "Hg (Oct 8, 12:30 PM)
Average70 °F28%30.12 "Hg
* Reported Sep 24 6:00 AM — Oct 9 6:00 AM, Mashhad, Weather by CustomWeather, © 2015

Note: Actual official high and low records may vary slightly from our data, if they occured in-between our weather recording intervals... More about our weather records


Mashhad weather history for previous 24 hours

Time TempWeatherWind HumidityBarometerVisibility
6:00 AM
Fri, Oct 9
66 °FPassing clouds.5 mph30%30.04 "HgN/A
5:30 AM66 °FClear.5 mph30%30.01 "Hg10 mi
4:50 AM66 °FClear.5 mph26%30.01 "Hg10 mi
4:30 AM66 °FClear.5 mph28%29.98 "Hg10 mi
4:00 AM68 °FClear.5 mph26%29.98 "Hg10 mi
3:30 AM68 °FClear.5 mph33%29.98 "Hg10 mi
3:00 AM68 °FClear.No wind33%29.98 "Hg10 mi
2:30 AM68 °FClear.5 mph30%29.98 "Hg10 mi
2:00 AM70 °FClear.5 mph29%29.95 "Hg5 mi
1:30 AM68 °FClear.5 mph33%29.95 "Hg5 mi
1:00 AM70 °FClear.5 mph25%29.95 "Hg10 mi
12:30 AM72 °FClear.No wind27%29.95 "Hg10 mi
12:00 AM70 °FClear.No wind31%29.95 "Hg10 mi
11:30 PM
Thu, Oct 8
73 °FClear.5 mph22%29.95 "Hg10 mi
11:00 PM73 °FClear.7 mph22%29.95 "Hg10 mi
10:30 PM75 °FClear.5 mph19%29.95 "Hg10 mi
10:00 PM77 °FClear.No wind17%29.95 "Hg10 mi
9:30 PM79 °FClear.5 mph16%29.95 "Hg10 mi
9:00 PM79 °FClear.5 mph17%29.95 "Hg10 mi
8:30 PM81 °FClear.5 mph15%29.95 "Hg10 mi
8:00 PM82 °FClear.5 mph11%29.92 "Hg10 mi
7:30 PM86 °FClear.5 mph10%29.92 "Hg10 mi
7:00 PM88 °FClear.7 mph9%29.92 "Hg10 mi
6:30 PM88 °FClear.9 mph10%29.92 "Hg10 mi
6:00 PM88 °FPassing clouds.5 mph9%29.89 "HgN/A
5:30 PM90 °FPassing clouds.12 mph9%29.89 "HgN/A
5:00 PM91 °FPassing clouds.12 mph9%29.89 "HgN/A
4:30 PM93 °FSunny.16 mph8%29.86 "Hg10 mi
4:00 PM93 °FPartly sunny.12 mph7%29.86 "HgN/A
3:30 PM95 °FPartly sunny.16 mph7%29.86 "HgN/A
3:00 PM95 °FScattered clouds.12 mph7%29.86 "HgN/A
2:30 PM95 °FScattered clouds.14 mph7%29.86 "HgN/A
2:00 PM97 °FPassing clouds.5 mph7%29.86 "HgN/A
1:30 PM95 °FScattered clouds.14 mph7%29.86 "HgN/A
1:00 PM95 °FScattered clouds.9 mph7%29.86 "HgN/A
12:30 PM95 °FScattered clouds.18 mph6%29.86 "HgN/A
12:00 PM95 °FPassing clouds.12 mph6%29.89 "HgN/A
11:30 AM95 °FSunny.12 mph7%29.89 "Hg10 mi
11:00 AM91 °FSunny.7 mph12%29.92 "Hg10 mi
10:30 AM88 °FSunny.7 mph13%29.92 "Hg10 mi
10:00 AM86 °FSunny.5 mph13%29.92 "Hg10 mi
9:30 AM84 °FSunny.5 mph15%29.92 "Hg10 mi
9:00 AM82 °FSunny.5 mph16%29.95 "Hg10 mi
8:30 AM79 °FSunny.7 mph18%29.95 "Hg10 mi
7:30 AM73 °FSunny.7 mph25%29.92 "Hg10 mi
7:00 AM70 °FSunny.5 mph33%29.92 "Hg10 mi
Weather by CustomWeather, © 2015

See weather overviewHow to use our weather pages